Regional Weather Roundup
Issued by NWS

Home | Current Version | Previous Version | Graphics & Text | Print | Product List | Glossary On
Versions: 1 2 3 4 5 6 7 8 9 10 11 12 13 14 15 16 17 18 19 20 21 22 23 24 25 26 27 28 29 30 31 32 33 34 35 36 37 38 39 40 41 42 43 44 45 46 47 48
000
ASUS45 KSLC 032210
RWRUT

UTAH REGIONAL WEATHER ROUNDUP
NATIONAL WEATHER SERVICE SALT LAKE CITY UT
300 PM MST TUE MAR 03 2015

UTZ001>011-023>025-032300-

NORTHERN UTAH

CITY           SKY/WX    TMP DP  RH WIND       PRES   REMARKS
BRIGHAM CITY   MOSUNNY   37  22  54 N9        29.90R WCI  30
HILL AFB       PTSUNNY   33  21  61 N3        29.88R
LOGAN          SUNNY     34  20  56 N9        29.89R WCI  27
OGDEN          CLOUDY    34  21  59 N10       29.88R WCI  26
PROVO AIRPORT  PTSUNNY   34  27  75 NW20      29.87S WCI  22
SALT LAKE CITY PTSUNNY   36  25  64 N12       29.90R WCI  28
VERNAL         LGT SNOW  31  27  85 N8        29.75R FOG     WCI  23
WENDOVER       PTSUNNY   43  14  31 NW18G24   29.92S
HEBER CITY     CLOUDY    32  23  69 E7        29.80S WCI  26
WEST JORDAN    CLOUDY    32  27  80 NW13      29.90R WCI  22

$$

UTZ012>022-026-027-032300-

SOUTHERN/CENTRAL UTAH

CITY           SKY/WX    TMP DP  RH WIND       PRES   REMARKS
BLANDING       MOSUNNY   37  28  71 SW10      29.86F WCI  29
BRYCE CANYON   FLURRIES  28  22  78 W8        29.78S WCI  20
CEDAR CITY     LGT SNOW  32  28  85 N9G22     29.83R FOG     WCI  24
DELTA          SUNNY     36  24  61 N16       29.88R WCI  26
HANKSVILLE     MOSUNNY   50  27  40 SW16      29.76S
MILFORD        HVY SNOW  30  27  88 NE17      29.87R VSB 1/4 WCI  18
MOAB/CYNLANDS  CLOUDY    38  31  76 W26G38    29.73S WCI  26
PRICE          CLOUDY    33  26  75 NE6       29.75F WCI  28
ST GEORGE      MOCLDY    50  36  57 NW13      29.87S
KANAB            N/A     41  28  60 W14       29.87F

$$

REGIONAL REPORTS     COLORADO/ARIZONA

CITY           SKY/WX    TMP DP  RH WIND       PRES   REMARKS
CRAIG, CO      CLOUDY    32  26  78 SW14      29.68S WCI  22
GRAND JUNCTION PTSUNNY   40  33  76 NE8       29.73S WCI  34
RIFLE          PTSUNNY   43  26  51 W16       29.69F
MONTROSE       PTSUNNY   40  25  55 S9G23     29.75F WCI  34
CORTEZ         CLOUDY    37  30  75 MISG      29.81F
PAGE, AZ       MOSUNNY   48  27  44 W7        29.80F
GRAND CANYON   PTSUNNY   32  26  78 SW12      29.85F WCI  23
KINGMAN        SUNNY     50  32  50 SW5       29.87F
FLAGSTAFF      NOT AVBL

$$

REGIONAL REPORTS    NEVADA/IDAHO/WYOMING

CITY           SKY/WX    TMP DP  RH WIND       PRES   REMARKS
LAS VEGAS, NV  PTSUNNY   55  35  47 S7        29.83F
ELY            CLOUDY    28  15  58 NW16      29.90R WCI  16
ELKO           PTSUNNY   36  12  37 VRB7      29.96S WCI  30
POCATELLO, ID  MOSUNNY   30  10  43 W5        29.93S WCI  25
BURLEY         MOSUNNY   37  22  54 VRB5      29.91F WCI  33
EVANSTON, WY   MOSUNNY   27  16  63 W18       29.77R WCI  14
ROCK SPRINGS   CLOUDY    15   9  76 E12       29.74F WCI   2

$$


USA.gov is the U.S. government's official web portal to all federal, state and local government web resources and services.